Location: Newark
(25.0000°N, 73.5000°E)
Time: 00:11:40
(UTC+00:00)

Tiros 1 despin weight - Pass Details

Date: 04 March 2021
Orbit: 593 x 641 km, 48.2° (Epoch: 15 April)

Event Time Altitude Azimuth Distance (km) Brightness Sun altitude
Rises 00:45:07 0° 324° (NW) 2,934 ? -10.1°
Reaches altitude 10° 00:47:39 10° 335° (NNW) 2,027 ? -9.5°
Maximum altitude 00:51:51 32° 39° (NE) 1,088 ? -8.6°
Drops below altitude 10° 00:56:03 10° 103° (ESE) 2,020 ? -7.6°
Sets 00:58:33 0° 113° (ESE) 2,924 ? -7.0°
